Fairbanks, AK

9:24 AM AKST on February 19, 2018 (GMT -0900)
Fairbanks International

Weather History for PAFA - September, 2014

Change the Weather History Date:

Tuesday, September 23, 2014

  Actual Average Record
Temperature  
Mean Temperature 35 °F 41 °F  
Max Temperature 42 °F 51 °F 72 °F (1940)
Min Temperature 28 °F 32 °F 7 °F (1992)
Degree Days  
Heating Degree Days 30 24  
Month to date heating degree days 357 424  
Since 1 July heating degree days 678 813  
Cooling Degree Days 0 0  
Month to date cooling degree days 0 0  
Year to date cooling degree days 27 61  
Moisture  
Dew Point 30 °F    
Average Humidity 79    
Maximum Humidity 89    
Minimum Humidity 73    
Precipitation  
Precipitation 0.13 in 0.03 in 0.29 in (1961)
Month to date precipitation 2.80 0.89  
Year to date precipitation 15.52 8.46  
Snow  
Snow T in 0.10 in 1.40 in (1924)
Month to date snowfall T 1.0  
Since 1 July snowfall T 1.0  
Since 1 September snowfall T 1.0  
Snow Depth 0.00 in    
Sea Level Pressure  
Sea Level Pressure 29.90 in    
Wind  
Wind Speed 3 mph (WSW)    
Max Wind Speed 9 mph    
Max Gust Speed -    
Visibility 9 miles    
Events Rain , Snow    
T = Trace of Precipitation, MM = Missing Value Source: NWS Daily Summary

Daily Weather History Graph

Daily Weather History Graph

Search for Another Location

Airport or City:

Trip Planner

Search our weather history database for the weather conditions in past years. The results will help you decide how hot, cold, wet, or windy it might be!

Date:

Astronomy

Sep. 23, 2014 Rise Set
Actual Time 7:37 AM AKDT 7:47 PM AKDT
Civil Twilight 6:48 AM AKDT 8:36 PM AKDT
Nautical Twilight 5:48 AM AKDT 9:36 PM AKDT
Astronomical Twilight 4:39 AM AKDT 10:44 PM AKDT
Moon 7:11 AM AKDT (9/23) 7:22 PM AKDT (9/23)
Length of Visible Light 13h 48m
Length of Day
12h 10m
Waning Crescent, 0% of the Moon is Illuminated
Sep 23
Waning Crescent
Sep 23
New
Oct 1
First Quarter
Oct 8
Full
Oct 15
Last Quarter

Hourly Weather History & Observations

Time (AKDT) Temp. Windchill Dew Point Humidity Pressure Visibility Wind Dir Wind Speed Gust Speed Precip Events Conditions
12:53 AM 30.9 °F 27.5 °F 25.0 °F 79% 29.86 in 10.0 mi North 3.5 mph - N/A   Scattered Clouds
1:53 AM 30.9 °F - 25.0 °F 79% 29.87 in 10.0 mi Calm Calm - N/A   Scattered Clouds
2:53 AM 30.0 °F - 24.1 °F 79% 29.88 in 10.0 mi Calm Calm - N/A   Scattered Clouds
3:53 AM 30.9 °F - 26.1 °F 82% 29.88 in 10.0 mi Calm Calm - N/A   Mostly Cloudy
4:53 AM 32.0 °F - 26.1 °F 79% 29.89 in 10.0 mi Calm Calm - N/A   Overcast
5:53 AM 30.9 °F - 25.0 °F 79% 29.89 in 10.0 mi Calm Calm - N/A   Overcast
6:53 AM 30.9 °F - 26.1 °F 82% 29.89 in 10.0 mi Calm Calm - N/A   Mostly Cloudy
7:53 AM 30.9 °F 26.2 °F 26.1 °F 82% 29.89 in 10.0 mi ENE 4.6 mph - N/A   Overcast
8:53 AM 32.0 °F 28.7 °F 27.0 °F 82% 29.89 in 10.0 mi NE 3.5 mph - N/A   Mostly Cloudy
9:53 AM 33.1 °F 30.0 °F 28.0 °F 82% 29.89 in 10.0 mi ENE 3.5 mph - N/A   Mostly Cloudy
10:53 AM 35.1 °F 32.2 °F 28.0 °F 76% 29.88 in 10.0 mi East 3.5 mph - N/A   Mostly Cloudy
11:53 AM 36.0 °F 33.3 °F 28.9 °F 76% 29.88 in 10.0 mi Variable 3.5 mph - N/A   Overcast
12:53 PM 37.0 °F - 30.0 °F 76% 29.88 in 6.0 mi Calm Calm - 0.00 in Rain , Snow Light Snow
1:53 PM 37.0 °F 34.5 °F 32.0 °F 82% 29.88 in 4.0 mi SSW 3.5 mph - 0.01 in Rain , Snow Light Rain
2:53 PM 39.0 °F 35.7 °F 35.1 °F 86% 29.87 in 5.0 mi SSW 4.6 mph - 0.08 in Rain Light Rain
3:53 PM 42.1 °F 38.4 °F 37.0 °F 82% 29.87 in 7.0 mi SW 5.8 mph - 0.03 in Rain Light Rain
4:53 PM 42.1 °F 38.4 °F 37.0 °F 82% 29.87 in 7.0 mi Variable 5.8 mph - 0.01 in Rain Light Rain
5:53 PM 42.1 °F 37.7 °F 35.1 °F 76% 29.88 in 10.0 mi West 6.9 mph - 0.00 in   Mostly Cloudy
6:03 PM 42.1 °F 36.6 °F 34.0 °F 73% 29.86 in 10.0 mi West 9.2 mph - N/A   Mostly Cloudy
6:53 PM 41.0 °F 35.8 °F 33.1 °F 73% 29.89 in 10.0 mi West 8.1 mph - N/A   Scattered Clouds
7:53 PM 39.0 °F 34.0 °F 30.9 °F 73% 29.92 in 10.0 mi West 6.9 mph - N/A   Partly Cloudy
8:53 PM 36.0 °F 31.1 °F 30.0 °F 79% 29.94 in 10.0 mi West 5.8 mph - N/A   Partly Cloudy
9:53 PM 34.0 °F 28.8 °F 28.9 °F 82% 29.96 in 10.0 mi SSW 5.8 mph - N/A   Partly Cloudy
10:53 PM 34.0 °F - 30.0 °F 85% 29.97 in 10.0 mi Calm Calm - N/A   Partly Cloudy
11:53 PM 30.9 °F - 28.0 °F 89% 29.99 in 10.0 mi Calm Calm - N/A   Clear